Tracking 28052 objects as of 22-Sep-2023
HD Live streaming from Space Station
objects crossing your sky now

KSF3-B

Track KSF3-B now!
10-day predictions


NORAD ID: 55019
Int'l Code: 2023-001L
Perigee: 506.3 km
Apogee: 522.6 km
Inclination: 97.5 °
Period: 94.8 minutes
Semi major axis: 6885 km
RCS: Unknown
Launch date: January 3, 2023
Source: Luxembourg (LUXE)
Launch site: AIR FORCE EASTERN TEST RANGE (AFETR)
Your satellite tracking list
Your tracking list is empty




NASA's NSSDC Master Catalog

Two Line Element Set (TLE):
1 55019U 23001L   23264.62499079  .00013134  00000-0  61990-3 0  9999
2 55019  97.4704 323.2045 0011828  51.7308 308.4989 15.19514832 39705
Source of the keplerian elements: AFSPC